Location: ??????
(55.2000°N, 38.3000°E)
Time: 00:51:39
(UTC+00:00)

Lacrosse 5 rocket - Pass Details

Date: 15 November 2025
Orbit: 406 x 492 km, 57.0° (Epoch: 12 December)

Event Time Altitude Azimuth Distance (km) Brightness Sun altitude
Exits shadow 02:49:05 61° 257° (WSW) 487 0.7 -18.3°
Maximum altitude 02:49:30 72° 204° (SSW) 450 0.7 -18.2°
Drops below altitude 10° 02:52:49 10° 120° (ESE) 1,490 4.6 -17.7°
Sets 02:54:52 0° 118° (ESE) 2,341 5.9 -17.4°
